Back to catalog

STARLINK-30448

AliveCommunicationsVLEO
NORAD 57928·PAYLOAD·🇺🇸 United States

Launched Sep 24, 2023 from Cape Canaveral Space Force Station

Loading…

Next Passes (next 24 hours)

TLE

FreshSource: CelesTrak SupGP

Epoch: Sep 14, 2026, 15:07 UTC

1 57928C 23147R   26257.63034722  .00015792  00000+0  57209-3 0  2573
2 57928  43.0040 341.6250 0001703 278.9598  74.6232 15.27565221    15

Track STARLINK-30448 in real time with AllMySat

Download on the App Store